Location: The Jewett Observatory
(46.7288°N, 117.1525°W)
Time: 20:02:51
(UTC-08:00)

Meteor 1-28 Rocket - Visible Passes

Search period start: 04 March 2015 00:00
Search period end: 14 March 2015 01:00
Orbit: 511 x 532 km, 97.2° (Epoch: 04 March)

Date Brightness Start Highest point End Pass type
(mag) Time Alt. Az. Time Alt. Az. Time Alt. Az.
04 Mar 5.5 19:46:13 10° NNE 19:46:52 15° NNE 19:46:52 15° NNE visible
05 Mar 5.3 19:33:15 10° NNE 19:34:09 16° NNE 19:34:09 16° NNE visible
05 Mar 6.4 21:08:35 10° NNW 21:09:18 12° NW 21:09:18 12° NW visible
06 Mar 5.1 19:20:21 10° NNE 19:21:26 17° NE 19:21:26 17° NE visible
06 Mar 6.0 20:55:05 10° NNW 20:56:35 17° NW 20:56:35 17° NW visible
07 Mar 5.0 19:07:33 10° NE 19:08:43 17° NE 19:08:43 17° NE visible
07 Mar 5.5 20:41:44 10° N 20:43:51 23° NW 20:43:51 23° NW visible
08 Mar 5.1 19:54:52 10° NE 19:55:59 15° ENE 19:55:59 15° ENE visible
08 Mar 5.0 21:28:28 10° N 21:31:09 31° NW 21:31:09 31° NW visible
09 Mar 6.3 06:39:35 10° E 06:41:37 15° ENE 06:43:48 10° NNE visible
09 Mar 5.2 19:42:25 10° NE 19:43:17 13° ENE 19:43:17 13° ENE visible
09 Mar 4.2 21:15:17 10° N 21:18:25 45° NW 21:18:25 45° NW visible
10 Mar 6.7 06:27:47 10° ENE 06:28:42 11° ENE 06:29:46 10° NE visible
10 Mar 3.5 21:02:10 10° N 21:05:42 66° NW 21:05:42 66° NW visible
11 Mar 3.1 20:49:05 10° NNE 20:52:58 82° ESE 20:52:58 82° ESE visible
11 Mar 6.6 22:25:52 10° NW 22:26:38 10° WNW 22:27:13 10° WNW visible
12 Mar 3.2 20:36:04 10° NNE 20:39:53 57° E 20:40:15 54° SE visible
12 Mar 6.3 22:11:36 10° NNW 22:13:42 14° WNW 22:15:24 11° W visible
13 Mar 3.6 20:23:06 10° NNE 20:26:46 40° E 20:27:31 36° SE visible
13 Mar 5.9 21:57:59 10° NNW 22:00:44 18° WNW 22:02:40 13° W visible
